{"data":{"norad_id":69002,"epoch":"2026-09-20T03:56:34.892736Z","epoch_age_seconds":47669,"freshness":"FRESH","line1":"1 69002U 26100Y   26263.16429274  .00000426  00000+0  46521-4 0  9993","line2":"2 69002  97.7221 158.9762 0003019  57.1269 303.0240 14.92878993 20866","mean_motion":14.92878993,"eccentricity":0.0003019,"inclination_deg":97.7221,"raan_deg":158.9762,"arg_perigee_deg":57.1269,"mean_anomaly_deg":303.024,"bstar":4.6521e-5,"rev_number":2086,"period_min":96.457918341142,"perigee_km":586.86058341694,"apogee_km":591.06731897127,"semimajor_km":6967.1009511941,"source":"CELESTRAK","updated_at":"2026-09-20T09:00:24.626286Z"}}